Volver al catálogo

FREGAT DEB

LostUNKNOWN
NORAD 46408·DEBRIS·🇷🇺 Russia

Lanzado Jul 18, 2011 desde Baikonur Cosmodrome

Loading…

Próximos Pases (próximas 24 horas)

TLE

ObsoletoSource: Space-Track

Época: Apr 21, 2022, 00:56 UTC

1 46408U 11037LP  22111.03890287  .00143148  00000-0  00000-0 0  9999
2 46408  51.8405 341.5884 2047938 164.4206 203.0608  9.61507721  8146

Sigue FREGAT DEB en tiempo real con AllMySat

Download on the App Store